Location: Ajisawe
(8.4333°N, 4.3833°E)
Time: 10:15:11
(UTC+00:00)

Vanguard 2 Rocket - Pass Details

Date: 26 April 2021
Orbit: 553 x 3326 km, 32.9° (Epoch: 07 May)

Event Time Altitude Azimuth Distance (km) Brightness Sun altitude
Rises 15:18:37 0° 305° (NW) 6,959 12.2 36.3°
Reaches altitude 10° 15:23:49 10° 313° (NW) 6,139 12.1 35.0°
Maximum altitude 15:42:01 39° 16° (NNE) 4,228 10.5 30.6°
Drops below altitude 10° 15:57:28 10° 80° (E) 5,306 10.4 26.8°
Sets 16:01:28 0° 88° (E) 5,978 10.5 25.9°
